YUNHAI 3-02

Satellite information

Favourite Embed

Satellite Type and Status

PAYLOADIN ORBIT

Key statistics

Satellite YUNHAI 3-02 at a glance.

Uptime

412

Days in orbit

Revolutions

≈ 14.1

Per day

Orbit

SSO

Sun Synchronous Orbit

Inclination

98.8

Latest

Satellite identification and parameters

Extended collection of information and parameters for YUNHAI 3-02.

Object identification

Identified? True

Debris? False

Object name: YUNHAI 3-02

International designator: 2024-058A

Object number (NORAD): 59343

Object ID (CCSDS): 59343

Country: PEOPLES REPUBLIC OF CHINA (PRC)

Current information (Y/N): Y

RCS size: LARGE

Orbital parameters

Period: 101.881 minutes

Inclination: 98.8219 deg

SMA: 7225.855 km

Apoapsis: 848.683 km

Periapsis: 846.758 km

RAAN: 139.3452 deg

Eccentricy: 0.0001332

Argument of periapsis: 78.5377 deg

Mean anomaly: 281.5945 deg

Mean motion: 14.1341231 rev/day

Mean motion (dot): 0.00000017 rev/day2

B* drag term: 0.00003233 1/REarth

Two-line elements (TLE)

Creation date: May 11, 2025, 2:40 a.m.

Reference frame: TEME

Reference center: EARTH

Epoch: May 10, 2025, 11:01 p.m. UTC

TLE line 0: 0 YUNHAI 3-02

TLE line 1: 1 59343U 24058A 25130.95927098 .00000017 00000-0 32330-4 0 9996

TLE line 2: 2 59343 98.8219 139.3452 0001332 78.5377 281.5945 14.13412310 57923

Live tracking on map

Real-time ground track for satellite YUNHAI 3-02.

In-orbit conjunctions

There are no conjunctions computed for YUNHAI 3-02, at the moment. Check back to stay up to date, as we update our databases every day.

Go to all conjunctions

Associated space launch

Chinese satellite reported for atmospheric/ocean/environmental/spatial parameter research purposes, details TBD.

YUNHAI 3-02 was lifted into orbit during the mission ‘Long March 6A | Yunhai 3-02’, on board a Long March 6A space rocket.

The launch took place on March 26, 2024, 10:51 p.m. from Launch Complex 9A.

For more information about the launch, click the button.

Launch to space Long March 6A | Yunhai 3-02
Long March 6A | Yunhai 3-02

Agency: N/A

Status: Launch Successful

Launch date: March 26, 2024, 10:51 p.m. UTC

Rocket: Long March 6A

Launch pad: Launch Complex 9A

Location: Taiyuan Satellite Launch Center, People's Republic of China

...

Latest news about this satellite

News about space launch
Long March 6A launches second Yunhai-3 satellite

China added to its fleet of secretive meteorological satellites with the launch of Yunhai-3 (02) late Tuesday.

News about space launch
Launch Roundup: Delta IV Heavy swan song, Falcon 9 and Soyuz launches on tap for last week of March

A trio of Falcon 9 Starlink launches, a Falcon 9 non-Starlink launch involving an Eutelsat communications satellite, a Chinese launch, and a Russian Soyuz launch with a Resurs Earth observation satellite are scheduled for this week. However, the launch th...


Newsletter sign-up

Weekly statistics, charts and insights to help you stay on top of the space industry.